235  
ASUS44 KLUB 250510  
RWRLUB  
WEST TEXAS WEATHER ROUNDUP  
NATIONAL WEATHER SERVICE LUBBOCK TX  
1100 PM CST SAT FEB 24 2018  
 
NOTE: "FAIR" INDICATES FEW OR NO CLOUDS BELOW 12,000 FEET WITH NO  
SIGNIFICANT WEATHER AND/OR S TO VISIBILITY
.  
 
TXZ004-006>008-010-012-014-016-OKZ002-250600-  
TEXAS PANHANDLE/OKLAHOMA PANHANDLE  
 
CITY SKY/WX TMP DP RH WIND PRES REMARKS
 
AMARILLO CLEAR 31 2 29 SW12 29.95R WCI 22  
BORGER CLEAR 36 0 21 S6 29.94R WCI 31  
CANADIAN CLEAR 27 23 85 S6 29.96R WCI 20  
DALHART CLEAR 31 -5 21 SW14 29.90S WCI 21  
DUMAS CLEAR 32 -3 22 SW12 29.92R WCI 23  
GUYMON CLEAR 29 20 69 S3 29.90R  
HEREFORD CLEAR 37 1 22 SW13 29.98R WCI 29  
PAMPA CLEAR 37 23 58 S12 29.95S WCI 29  
PERRYTON CLEAR 28 22 79 S7 29.92S WCI 21  

 
 
TXZ026-029-035-045-048-250600-  
SOUTHERN PANHANDLE/SOUTH PLAINS/ROLLING PLAINS  
 
CITY SKY/WX TMP DP RH WIND PRES REMARKS
 
CHILDRESS CLEAR 42 14 32 N7 30.00R  
SEMINOLE CLEAR 34 5 29 NW6 30.03S WCI 29  
LUBBOCK CLEAR 37 5 26 W6 30.01R WCI 32  
PLAINVIEW CLEAR 31 10 40 SW8 29.99R WCI 24  
SNYDER CLEAR 49 10 21 CALM 30.02S  

 
 
TXZ052-054-060>062-072-078-127-140-154-169-250600-  
PERMIAN BASIN/CONCHO VALLEY/BIG COUNTRY/EDWARDS PLATEAU  
 
CITY SKY/WX TMP DP RH WIND PRES REMARKS
 
ABILENE CLEAR 41 32 70 SE9 30.02R  
BIG SPRING CLEAR 41 16 36 CALM 30.04S  
JUNCTION CLEAR 50 46 86 W5 30.00R  
MIDLAND CLEAR 39 11 31 N9 30.01F WCI 33  
ODESSA CLEAR 41 9 26 N6 30.02F  
SAN ANGELO CLEAR 45 30 55 W6 30.01R  
SONORA CLEAR 45 39 81 CALM 30.07R  
SWEETWATER CLEAR 48 19 32 SE3 30.05R  
WINK CLEAR 36 5 27 N6 30.00F WCI 31  

 
 
TXZ055-058-074-075-080-082-250600-  
FAR WEST/SOUTHWEST MOUNTAINS/TRANS PECOS  
 
CITY SKY/WX TMP DP RH WIND PRES REMARKS
 
ALPINE CLEAR 44 8 23 CALM 30.12F  
DRYDEN N/A 51 13 21 NE6 30.00R  
EL PASO CLEAR 47 2 15 S5 30.06R  
FORT STOCKTON CLEAR 45 1 16 W8 30.04R  
GUADALUPE PASS CLEAR 40 -1 18 SW15G26 30.05 WCI 32  
MARFA CLEAR 28 6 39 N5 30.10S WCI 23  
PECOS CLEAR 42 1 17 SW9 30.04S  
PRESIDIO FAIR 50 11 21 N5 30.05R  

 
 
TXZ014-016-019-021>030-083-250600  
TEXAS TECH WEST TEXAS MESONET/TEXAS PANHANDLE/NORTHERN SOUTH PLAINS  
 
CITY SKY/WX TMP DP RH WIND PRES REMARKS
 
ABERNATHY 5ENE N/A 32 8 37 SW9 30.01S WCI 24  
AMARILLO 9NNE N/A 37 2 22 SW12 29.95R WCI 29  
AMARILLO 7SSE N/A 26 1 33 SW9 29.97R WCI 16  
AMHERST 1NE N/A 34 7 32 SW9 30.01S WCI 26  
BOOTLEG 11WNW N/A 24 -3 30 SW10 29.98S WCI 14  
CANADIAN 6E N/A 29 25 83 SE6 29.95R WCI 23  
CAPROCK CYN SP N/A 39 7 27 SW5 30.00R  
CHILDRESS 2NNE N/A 40 33 76 SE7 30.00R  
CLARENDON 2WSW N/A 30 8 39 S9 29.97R WCI 22  
CLAUDE 12SW N/A 41 2 19 SW3 29.96S  
DIMMITT 2NE N/A 34 3 26 W12 29.98S WCI 26  
FLOYDADA 2NNE N/A 38 4 25 SW10 30.00S WCI 30  
FRIONA 2NE N/A 32 0 25 SW13 29.98S WCI 23  
GOODLETT 3W N/A 40 35 84 E10 30.00R WCI 33  
HART 3N N/A 28 7 39 SW10 29.99R WCI 19  
HEREFORD 2NW N/A 32 0 25 SW12 29.96S WCI 23  
MCLEAN 1E N/A 35 28 73 SE9 29.96S WCI 28  
MEMPHIS 1NE N/A 39 32 75 E3 29.99R  
MULESHOE 2SSW N/A 35 4 27 SW9 30.00R WCI 28  
OLTON 6S N/A 30 9 41 SW10 30.00S WCI 21  
PALO DURO SP N/A 40 2 20 SW12 29.97S WCI 33  
PAMPA 2E N/A 32 22 68 SE10 29.95R WCI 23  
PLAINVIEW 1S N/A 34 11 38 SW7 29.99S WCI 28  
SILVERTON 7ESE N/A 31 10 41 SW12 30.00R WCI 21  
TULIA 2ENE N/A 35 6 30 SW12 29.98S WCI 27  
TURKEY 2WSW N/A 35 16 47 SW10 29.99R WCI 27  
UMBARGER 3NNE N/A 29 1 29 SW10 29.97R WCI 20  

 
 
TXZ033>036-039>041-045>048-250600  
TEXAS TECH WEST TEXAS MESONET/SOUTH PLAINS  
 
CITY SKY/WX TMP DP RH WIND PRES REMARKS
 
AIKEN 3WSW N/A 31 10 40 SW9 30.01S WCI 23  
ANDREWS 2NE N/A 42 7 23 W2 30.03S  
ANTON 6SSW N/A 33 7 33 SW13 30.02S WCI 24  
BROWNFIELD 2S N/A 39 3 22 W10 30.01F WCI 32  
DENVR CTY 7WNW N/A 33 4 29 W8 30.02S WCI 26  
GAIL 2ESE N/A 42 14 32 SW7 30.01S  
LAMESA 2SE N/A 36 15 42 SW2 30.03S  
LUBBOCK 3WNW N/A 39 3 22 SW7 30.02S WCI 34  
MORTON 1ENE N/A 34 4 28 SW8 30.02R WCI 27  
ODONNELL 1N N/A 33 1 26 NW10 30.01S WCI 25  
PLAINS 3N N/A 31 4 32 W10 30.03S WCI 22  
RALLS 1SE N/A 34 3 27 W12 30.01S WCI 25  
REESE CENTER N/A 29 3 32 SW8 30.02R WCI 21  
SEAGRAVES 1SW N/A 30 5 34 W3 30.02S  
SEMINOLE 2NNE N/A 37 4 24 W6 30.02S WCI 33  
SLATON 2NE N/A 37 2 23 W9 30.01S WCI 30  
SNYDER 3E N/A 49 10 20 W2 30.01S  
SUNDOWN 8SW N/A 28 4 36 W7 30.02S WCI 21  
TAHOKA 3NNE N/A 33 2 27 NW9 30.01S WCI 26  
WOLFFORTH 6SSW N/A 35 2 24 SW9 30.02S WCI 28  

 
 
TXZ031-032-036>038-042>044-250600-  
TEXAS TECH WEST TEXAS MESONET/ROLLING PLAINS  
 
CITY SKY/WX TMP DP RH WIND PRES REMARKS
 
ASPERMONT 3NE N/A 40 18 41 S7 30.02R  
FLUVANNA 3WNW N/A 43 8 23 SW3 30.01S  
GRAHAM 5SSW N/A 37 6 27 W3 30.01R  
GUTHRIE 10WSW N/A 43 9 25 NW5 29.99S  
HASKELL 1NW N/A 40 28 60 SW1 30.02R  
JAYTON 1SSE N/A 39 13 35 SE5 30.01R  
KNOX CITY 3NW N/A 36 29 74 S7 30.02S WCI 31  
LK A HENRY 1NW N/A 43 11 27 S7 30.00S  
ODELL 4ENE N/A 40 37 88 E7 30.02S  
PADUCAH 10SW N/A 43 10 25 W8 29.99S  
POST 1NE N/A 40 6 24 W8 30.00F WCI 35  
RRING SPRGS 3N N/A 34 11 38 W8 30.00R WCI 27  
SEYMOUR 3NW N/A 38 29 68 NE9 30.01S WCI 32  
SPUR 1W N/A 42 8 25 NW9 29.99S  
WEINERT 2NNE N/A 40 26 57 S6 30.02S  
WHITE RVR 6NE N/A 40 6 24 W8 30.00R WCI 35  

 
 
TXZ052-054-060>062-072-078-127-140-154-169-250600-  
TEXAS TECH WEST TEXAS MESONET/PERMIAN BASIN/  
CONCHO VALLEY/BIG COUNTRY/EDWARDS PLATEAU  
 
CITY SKY/WX TMP DP RH WIND PRES REMARKS
 
COYANOSA 2N N/A 38 0 20 S3 30.05R  
JUNCTION 1SSW N/A 47 44 90 CALM 30.01R  
MERTZON 3NNE N/A 38 28 67 W2 30.03R  
SAN ANGELO 7NW N/A 44 27 51 W3 30.02R  
STRLNG CT 4WSW N/A 39 23 53 W3 30.03S  
ST LAWRNCE 5SW N/A 43 19 37 N5 30.02S  
SWEETWATR 11SW N/A 47 19 33 NE5 30.03S  
WALL 1E N/A 45 36 70 CALM 30.03R  

 
 
TXZ055-058-074-075-080-082-250600-  
TEXAS TECH WEST TEXAS MESONET/FAR WEST/SOUTHWEST MOUNTAINS/TRANS PECOS  
 
CITY SKY/WX TMP DP RH WIND PRES REMARKS
 
PRSMN GAP BBNP N/A 62 15 16 N17 30.01R  
GUADLPE MTN NP N/A 46 -19 6 W21 30.03F  

 
 
 
CLICK HERE TO GO TO PREVIOUS BULLETINS.

The Nexlab TX Page Main Text Page